| time (UTC) | temp F | wind direction | speed MPH | gust MPH | rain 1hr in | rain 24hr in | rain mn in | humidity % | barometer mb |
| 20260507150038 | 65 | 16 | 2.0 | 10.0 | 0.00 | 0.00 | 0.00 | 87 | 1016.4 |
| 20260507144536 | 65 | 329 | 2.0 | 8.0 | 0.00 | 0.00 | 0.00 | 87 | 1016.4 |
| 20260507143039 | 65 | 17 | 3.0 | 11.0 | 0.00 | 0.00 | 0.00 | 87 | 1016.3 |
| 20260507141542 | 65 | 347 | 3.0 | 9.0 | 0.00 | 0.00 | 0.00 | 87 | 1016.2 |
| 20260507140033 | 65 | 13 | 2.0 | 10.0 | 0.00 | 0.00 | 0.00 | 87 | 1016.3 |
| 20260507134532 | 65 | 5 | 1.0 | 6.0 | 0.00 | 0.00 | 0.00 | 87 | 1016.5 |
| 20260507133029 | 66 | 36 | 0.0 | 4.0 | 0.00 | 0.00 | 0.00 | 87 | 1016.7 |
| 20260507131530 | 66 | 13 | 1.0 | 5.0 | 0.00 | 0.00 | 0.00 | 88 | 1016.3 |
| 20260507130027 | 66 | 340 | 1.0 | 9.0 | 0.00 | 0.00 | 0.00 | 87 | 1016.1 |
| 20260507124531 | 67 | 24 | 1.0 | 5.0 | 0.00 | 0.00 | 0.00 | 87 | 1015.7 |
| 20260507123018 | 67 | 327 | 0.0 | 5.0 | 0.00 | 0.00 | 0.00 | 87 | 1015.3 |
| 20260507121515 | 67 | 5 | 1.0 | 5.0 | 0.00 | 0.00 | 0.00 | 87 | 1015.3 |
| 20260507120013 | 68 | 15 | 2.0 | 6.0 | 0.00 | 0.00 | 0.00 | 87 | 1015.0 |
| 20260507114510 | 68 | 14 | 0.0 | 5.0 | 0.00 | 0.00 | 0.00 | 88 | 1014.8 |
| 20260507113014 | 68 | 23 | 1.0 | 8.0 | 0.00 | 0.00 | 0.00 | 87 | 1014.5 |
| 20260507111513 | 68 | 355 | 2.0 | 9.0 | 0.00 | 0.00 | 0.00 | 87 | 1014.4 |
| 20260507110019 | 68 | 344 | 1.0 | 6.0 | 0.00 | 0.00 | 0.00 | 87 | 1014.5 |
| 20260507104504 | 68 | 9 | 1.0 | 8.0 | 0.00 | 0.00 | 0.00 | 88 | 1014.3 |
| 20260507103002 | 69 | 351 | 1.0 | 6.0 | 0.00 | 0.00 | 0.00 | 88 | 1014.2 |
| 20260507101701 | 69 | 5 | 2.0 | 9.0 | 0.00 | 0.00 | 0.00 | 88 | 1014.0 |
| 20260507100059 | 69 | 32 | 0.0 | 5.0 | 0.00 | 0.00 | 0.00 | 88 | 1013.6 |
| 20260507094559 | 69 | 355 | 1.0 | 6.0 | 0.00 | 0.00 | 0.00 | 88 | 1013.7 |
| 20260507093057 | 69 | 287 | 1.0 | 13.0 | 0.00 | 0.00 | 0.00 | 87 | 1013.6 |
| 20260507091554 | 70 | 9 | 1.0 | 8.0 | 0.00 | 0.00 | 0.00 | 87 | 1013.7 |
| 20260507090052 | 70 | 24 | 1.0 | 9.0 | 0.00 | 0.00 | 0.00 | 88 | 1013.4 |
| 20260507084551 | 70 | 53 | 1.0 | 7.0 | 0.00 | 0.00 | 0.00 | 87 | 1013.3 |
| 20260507083049 | 71 | 21 | 3.0 | 8.0 | 0.00 | 0.00 | 0.00 | 87 | 1013.1 |
| 20260507081547 | 71 | 38 | 2.0 | 8.0 | 0.00 | 0.00 | 0.00 | 87 | 1013.3 |
| 20260507080045 | 71 | 32 | 2.0 | 8.0 | 0.00 | 0.00 | 0.00 | 88 | 1013.2 |
| 20260507074554 | 72 | 322 | 1.0 | 6.0 | 0.00 | 0.00 | 0.00 | 88 | 1013.3 |
| 20260507073046 | 72 | 5 | 1.0 | 8.0 | 0.00 | 0.00 | 0.00 | 88 | 1013.4 |
| 20260507071540 | 72 | 26 | 2.0 | 8.0 | 0.00 | 0.00 | 0.00 | 87 | 1013.4 |
| 20260507070048 | 73 | 10 | 1.0 | 8.0 | 0.00 | 0.00 | 0.00 | 88 | 1013.4 |
| 20260507064538 | 73 | 308 | 2.0 | 8.0 | 0.00 | 0.00 | 0.00 | 88 | 1013.3 |
| 20260507063052 | 73 | 5 | 1.0 | 5.0 | 0.00 | 0.00 | 0.00 | 88 | 1013.4 |
| 20260507061536 | 73 | 319 | 1.0 | 9.0 | 0.00 | 0.00 | 0.00 | 87 | 1013.2 |
| 20260507060042 | 73 | 24 | 1.0 | 9.0 | 0.00 | 0.00 | 0.00 | 87 | 1013.0 |
| 20260507054533 | 74 | 322 | 2.0 | 6.0 | 0.00 | 0.00 | 0.00 | 88 | 1013.0 |
| 20260507053031 | 74 | 329 | 1.0 | 9.0 | 0.00 | 0.00 | 0.00 | 88 | 1013.2 |
| 20260507051529 | 74 | 315 | 2.0 | 10.0 | 0.00 | 0.00 | 0.00 | 88 | 1013.0 |
| 20260507050032 | 75 | 36 | 1.0 | 5.0 | 0.00 | 0.00 | 0.00 | 89 | 1013.0 |
| 20260507044524 | 75 | 323 | 2.0 | 6.0 | 0.00 | 0.00 | 0.00 | 88 | 1013.0 |
| 20260507043022 | 76 | 355 | 2.0 | 9.0 | 0.00 | 0.00 | 0.00 | 89 | 1013.1 |
| 20260507041519 | 78 | 183 | 0.0 | 2.0 | 0.00 | 0.00 | 0.00 | 92 | 1012.7 |
| 20260507040019 | 78 | 183 | 0.0 | 0.0 | 0.00 | 0.00 | 0.00 | 92 | 1012.6 |
| 20260507034529 | 78 | 183 | 0.0 | 2.0 | 0.00 | 0.00 | 0.00 | 91 | 1012.5 |
| 20260507033014 | 78 | 183 | 0.0 | 2.0 | 0.00 | 0.00 | 0.00 | 92 | 1012.1 |
| 20260507031513 | 78 | 183 | 0.0 | 2.0 | 0.00 | 0.00 | 0.00 | 91 | 1012.0 |
| 20260507030014 | 78 | 182 | 0.0 | 3.0 | 0.00 | 0.00 | 0.00 | 91 | 1011.5 |
| 20260507024514 | 78 | 168 | 0.0 | 2.0 | 0.00 | 0.00 | 0.00 | 91 | 1011.3 |
| 20260507023012 | 78 | 168 | 0.0 | 2.0 | 0.00 | 0.00 | 0.00 | 90 | 1011.2 |
| 20260507021511 | 78 | 168 | 0.0 | 1.0 | 0.00 | 0.00 | 0.00 | 90 | 1010.9 |
| 20260507020025 | 78 | 168 | 2.0 | 7.0 | 0.00 | 0.00 | 0.00 | 90 | 1010.7 |
| 20260507014511 | 79 | 167 | 2.0 | 3.0 | 0.00 | 0.00 | 0.00 | 89 | 1010.4 |
| 20260507013120 | 79 | 167 | 0.0 | 5.0 | 0.00 | 0.00 | 0.00 | 89 | 1010.4 |
| 20260507011509 | 79 | 169 | 3.0 | 6.0 | 0.00 | 0.00 | 0.00 | 89 | 1010.1 |
| 20260507010009 | 79 | 155 | 1.0 | 3.0 | 0.00 | 0.00 | 0.00 | 89 | 1010.2 |
| 20260507004508 | 80 | 154 | 1.0 | 3.0 | 0.00 | 0.00 | 0.00 | 89 | 1010.0 |
| 20260507003007 | 80 | 154 | 1.0 | 3.0 | 0.00 | 0.00 | 0.00 | 89 | 1010.0 |
| 20260507001507 | 80 | 154 | 1.0 | 5.0 | 0.00 | 0.00 | 0.00 | 88 | 1009.7 |
| 20260507000006 | 80 | 152 | 2.0 | 6.0 | 0.00 | 0.00 | 0.00 | 88 | 1009.7 |
| 20260506234508 | 81 | 173 | 2.0 | 5.0 | 0.00 | 0.00 | 0.00 | 88 | 1009.6 |
| 20260506233006 | 81 | 160 | 3.0 | 7.0 | 0.00 | 0.00 | 0.00 | 88 | 1009.7 |
| 20260506231504 | 81 | 165 | 2.0 | 6.0 | 0.00 | 0.00 | 0.00 | 87 | 1009.7 |
| 20260506230003 | 81 | 186 | 3.0 | 8.0 | 0.00 | 0.00 | 0.00 | 87 | 1009.3 |
| 20260506224505 | 81 | 168 | 4.0 | 11.0 | 0.00 | 0.00 | 0.00 | 87 | 1009.3 |
| 20260506223002 | 81 | 169 | 6.0 | 9.0 | 0.00 | 0.00 | 0.00 | 87 | 1009.4 |
| 20260506221500 | 81 | 172 | 3.0 | 7.0 | 0.00 | 0.00 | 0.00 | 87 | 1009.5 |
| 20260506220003 | 81 | 134 | 5.0 | 11.0 | 0.00 | 0.00 | 0.00 | 87 | 1009.3 |
| 20260506214602 | 82 | 148 | 4.0 | 9.0 | 0.00 | 0.00 | 0.00 | 86 | 1009.4 |
| 20260506213059 | 83 | 171 | 2.0 | 10.0 | 0.00 | 0.00 | 0.00 | 84 | 1009.5 |
| 20260506211609 | 83 | 152 | 3.0 | 9.0 | 0.00 | 0.00 | 0.00 | 84 | 1009.5 |
| 20260506210056 | 83 | 171 | 5.0 | 9.0 | 0.00 | 0.00 | 0.00 | 84 | 1009.5 |
| 20260506204555 | 83 | 196 | 3.0 | 8.0 | 0.00 | 0.00 | 0.00 | 85 | 1009.6 |
| 20260506203053 | 83 | 113 | 3.0 | 9.0 | 0.00 | 0.00 | 0.00 | 85 | 1009.7 |
| 20260506201552 | 82 | 184 | 4.0 | 12.0 | 0.00 | 0.00 | 0.00 | 87 | 1010.0 |
| 20260506200051 | 82 | 159 | 3.0 | 9.0 | 0.00 | 0.00 | 0.00 | 86 | 1010.1 |
| 20260506194553 | 82 | 140 | 3.0 | 9.0 | 0.00 | 0.00 | 0.00 | 86 | 1010.2 |
| 20260506194519 | 82 | 145 | 3.0 | 9.0 | 0.00 | 0.00 | 0.00 | 86 | 1010.2 |
| 20260506193048 | 82 | 141 | 5.0 | 11.0 | 0.00 | 0.00 | 0.00 | 87 | 1010.5 |
| 20260506191547 | 82 | 159 | 4.0 | 8.0 | 0.00 | 0.00 | 0.00 | 87 | 1010.5 |
| 20260506190045 | 82 | 155 | 3.0 | 8.0 | 0.00 | 0.00 | 0.00 | 87 | 1010.6 |
| 20260506184545 | 81 | 161 | 2.0 | 6.0 | 0.00 | 0.00 | 0.00 | 87 | 1010.7 |
| 20260506183044 | 81 | 162 | 3.0 | 7.0 | 0.00 | 0.00 | 0.00 | 87 | 1010.9 |
| 20260506181543 | 81 | 172 | 4.0 | 8.0 | 0.00 | 0.00 | 0.00 | 87 | 1011.2 |
| 20260506180044 | 82 | 173 | 2.0 | 7.0 | 0.00 | 0.00 | 0.00 | 87 | 1011.3 |
| 20260506174546 | 82 | 170 | 1.0 | 6.0 | 0.00 | 0.00 | 0.00 | 87 | 1011.2 |
| 20260506173046 | 82 | 169 | 2.0 | 7.0 | 0.00 | 0.00 | 0.00 | 87 | 1011.5 |
| 20260506171547 | 81 | 141 | 3.0 | 7.0 | 0.00 | 0.00 | 0.00 | 87 | 1011.6 |
| 20260506170036 | 81 | 131 | 1.0 | 6.0 | 0.00 | 0.00 | 0.00 | 87 | 1012.0 |
| 20260506164541 | 80 | 153 | 4.0 | 8.0 | 0.00 | 0.00 | 0.00 | 88 | 1011.8 |
| 20260506163029 | 79 | 151 | 2.0 | 5.0 | 0.00 | 0.00 | 0.00 | 89 | 1011.6 |
| 20260506161527 | 79 | 148 | 1.0 | 5.0 | 0.00 | 0.00 | 0.00 | 89 | 1011.6 |
| 20260506160024 | 79 | 170 | 3.0 | 5.0 | 0.00 | 0.00 | 0.00 | 90 | 1011.7 |
| 20260506154521 | 79 | 139 | 1.0 | 7.0 | 0.00 | 0.00 | 0.00 | 90 | 1011.2 |
| 20260506153020 | 78 | 178 | 1.0 | 6.0 | 0.00 | 0.00 | 0.00 | 90 | 1011.1 |
| 20260506151519 | 79 | 154 | 1.0 | 8.0 | 0.00 | 0.00 | 0.00 | 90 | 1011.0 |